Laredo, TX

4:49 PM CST on January 22, 2018 (GMT -0600)
Laredo International

Weather History for KLRD - June, 2013

Change the Weather History Date:

Friday, June 21, 2013

  Actual Average Record
Temperature  
Mean Temperature 90 °F 88 °F  
Max Temperature 100 °F 99 °F 109 °F (1996)
Min Temperature 79 °F 76 °F 62 °F (1912)
Degree Days  
Heating Degree Days 0 0  
Month to date heating degree days 0 0  
Since 1 June heating degree days 0 0  
Since 1 July heating degree days 517 926  
Cooling Degree Days 25 23  
Month to date cooling degree days 473 456  
Year to date cooling degree days 1674 1599  
Since 1 June cooling degree days 473 456  
Growing Degree Days 40 (Base 50)    
Moisture  
Dew Point 68 °F    
Average Humidity 56    
Maximum Humidity 82    
Minimum Humidity 27    
Precipitation  
Precipitation 0.00 in 0.08 in 2.08 in (1973)
Month to date precipitation 2.01 1.51  
Year to date precipitation 9.09 8.38  
Sea Level Pressure  
Sea Level Pressure 29.98 in    
Wind  
Wind Speed 16 mph (SE)    
Max Wind Speed 25 mph    
Max Gust Speed 30 mph    
Visibility 9 miles    
Events      
T = Trace of Precipitation, MM = Missing Value Source: NWS Daily Summary

Daily Weather History Graph

Daily Weather History Graph

Search for Another Location

Airport or City:

Trip Planner

Search our weather history database for the weather conditions in past years. The results will help you decide how hot, cold, wet, or windy it might be!

Date:

Astronomy

Jun. 21, 2013 Rise Set
Actual Time 6:43 AM CDT 8:36 PM CDT
Civil Twilight 6:16 AM CDT 9:02 PM CDT
Nautical Twilight 5:44 AM CDT 9:34 PM CDT
Astronomical Twilight 5:10 AM CDT 10:08 PM CDT
Moon 6:54 PM CDT (6/21) 4:53 AM CDT (6/21)
Length of Visible Light 14h 46m
Length of Day
13h 53m
Waxing Gibbous, 95% of the Moon is Illuminated
Jun 21
Waxing Gibbous
Jun 23
Full
Jun 29
Last Quarter
Jul 8
New
Jul 15
First Quarter

Hourly Weather History & Observations

Time (CDT) Temp. Heat Index Dew Point Humidity Pressure Visibility Wind Dir Wind Speed Gust Speed Precip Events Conditions
12:56 AM 83.8 °F 88.6 °F 70.9 °F 65% 30.00 in 10.0 mi SE 13.8 mph - N/A   Unknown
1:56 AM 81.9 °F 86.6 °F 72.0 °F 72% 29.99 in 10.0 mi SE 11.5 mph - N/A   Unknown
2:56 AM 81.0 °F 85.2 °F 72.0 °F 74% 29.99 in 9.0 mi SE 12.7 mph - N/A   Clear
3:56 AM 79.9 °F - 72.0 °F 77% 29.99 in 9.0 mi SE 12.7 mph - N/A   Scattered Clouds
4:06 AM 80.6 °F 85.4 °F 73.4 °F 79% 30.02 in 9.0 mi SE 11.5 mph - N/A   Mostly Cloudy
4:30 AM 80.6 °F 85.4 °F 73.4 °F 79% 30.02 in 8.0 mi SE 12.7 mph - N/A   Scattered Clouds
4:56 AM 79.9 °F - 72.9 °F 79% 29.98 in 8.0 mi SE 12.7 mph - N/A   Mostly Cloudy
5:17 AM 80.6 °F 85.4 °F 73.4 °F 79% 30.02 in 8.0 mi SE 9.2 mph - N/A   Scattered Clouds
5:56 AM 79.9 °F - 72.9 °F 79% 29.98 in 8.0 mi SE 9.2 mph - N/A   Partly Cloudy
6:56 AM 79.0 °F - 72.9 °F 81% 29.99 in 8.0 mi SE 11.5 mph - N/A   Partly Cloudy
7:41 AM 80.6 °F 85.4 °F 73.4 °F 79% 30.04 in 7.0 mi SSE 11.5 mph - N/A   Mostly Cloudy
7:56 AM 79.9 °F - 72.9 °F 79% 30.01 in 7.0 mi SE 11.5 mph - N/A   Mostly Cloudy
8:56 AM 82.9 °F 88.5 °F 72.9 °F 71% 30.01 in 8.0 mi SSE 12.7 mph - N/A   Mostly Cloudy
9:41 AM 84.2 °F 89.6 °F 71.6 °F 66% 30.05 in 9.0 mi SSE 19.6 mph - N/A   Mostly Cloudy
9:56 AM 86.9 °F 92.5 °F 70.9 °F 59% 30.02 in 9.0 mi SSE 19.6 mph - N/A   Mostly Cloudy
10:22 AM 87.8 °F 92.6 °F 69.8 °F 55% 30.05 in 10.0 mi South 18.4 mph - N/A   Scattered Clouds
10:56 AM 88.9 °F 93.0 °F 68.9 °F 51% 30.02 in 8.0 mi SSE 20.7 mph - N/A   Partly Cloudy
11:56 AM 91.9 °F 95.4 °F 66.9 °F 44% 30.03 in 9.0 mi SSE 17.3 mph 27.6 mph N/A   Clear
12:56 PM 93.9 °F 95.6 °F 63.9 °F 37% 30.02 in 8.0 mi South 19.6 mph 27.6 mph N/A   Clear
1:56 PM 95.9 °F 98.0 °F 63.9 °F 35% 29.99 in 9.0 mi SSE 17.3 mph 24.2 mph N/A   Clear
2:56 PM 97.9 °F 98.3 °F 61.0 °F 29% 29.98 in 10.0 mi SSE 16.1 mph - N/A   Clear
3:56 PM 100.4 °F 101.3 °F 60.8 °F 27% 29.99 in 10.0 mi SSE 19.6 mph 25.3 mph N/A   Clear
4:56 PM 99.9 °F 101.5 °F 61.9 °F 29% 29.92 in 10.0 mi South 23.0 mph 29.9 mph N/A   Partly Cloudy
5:56 PM 99.0 °F 98.6 °F 59.0 °F 26% 29.91 in 10.0 mi SE 24.2 mph 27.6 mph N/A   Clear
6:56 PM 97.9 °F 97.4 °F 59.0 °F 27% 29.89 in 10.0 mi SE 19.6 mph - N/A   Clear
7:56 PM 95.9 °F 96.1 °F 61.0 °F 31% 29.90 in 10.0 mi SE 21.9 mph 26.5 mph N/A   Clear
8:56 PM 92.8 °F 92.4 °F 59.9 °F 33% 29.91 in 10.0 mi SE 17.3 mph - N/A   Clear
9:56 PM 90.9 °F 91.6 °F 63.0 °F 39% 29.93 in 10.0 mi SE 13.8 mph - N/A   Clear
10:56 PM 88.9 °F 91.8 °F 66.9 °F 48% 29.94 in 10.0 mi SE 19.6 mph - N/A   Clear
11:56 PM 86.0 °F 90.7 °F 70.0 °F 59% 29.95 in 10.0 mi SE 11.5 mph - N/A   Clear